User: anonymous   Login
Location: Unspecified
(0.0000°N, 0.0000°E)
Time: 01:53:33
(UTC+00:00)
Language:

STARLINK-6376 - Orbit

View from above orbital plane
View from above orbital plane
View from above satellite
View from above satellite

Ground track
Ground track

The orbit is defined by the following mean orbital elements,

1 57349U          26145.42557904 +.00000000 +00000-0 +63251-5 0 00007
2 57349  43.0013 175.5020 0001547 266.3852  93.6823 15.27575708    08
Epoch (UTC): 25 May 2026 10:12:50
Eccentricity: 0.0001547
inclination: 43.0013°
perigee height: 482 km
apogee height: 484 km
right ascension of ascending node: 175.5020°
argument of perigee: 266.3852°
revolutions per day: 15.27575708
mean anomaly at epoch: 93.6823°

The dashed part of the orbit path shows where the satellite is in the earth's shadow,  

DLR